Regional Weather Roundup
Issued by NWS Albany, NY

Current Version | Previous Version | Graphics & Text | Print | Product List | Glossary On
Versions: 1 2 3 4 5 6 7 8 9 10 11 12 13 14 15 16 17 18 19 20 21 22 23 24 25 26 27 28 29 30 31 32 33 34 35 36 37 38 39 40 41 42 43 44 45 46 47 48 49 50
000
ASUS41 KALY 191110
RWRALY

NEW YORK STATE HOURLY WEATHER ROUNDUP
NATIONAL WEATHER SERVICE ALBANY NY
600 AM EST WED FEB 19 2020

NOTE: "FAIR" INDICATES FEW OR NO CLOUDS BELOW 12,000 FEET WITH NO
SIGNIFICANT WEATHER AND/OR NO OBSTRUCTIONS TO VISIBILITY.

NYZ032-033-038>043-046>054-057>066-NYZ062>081-082-084-191200-
EAST


CITY           SKY/WX    TMP DP  RH WIND       PRES   REMARKS
ALBANY         MOCLDY    36  22  56 NW17G33   30.10R WCI  26
GLENS FALLS    FAIR      35  20  54 W8G20     30.04S WCI  29
POUGHKEEPSIE   FAIR      35  31  85 W5        30.10R WCI  31
NEWBURGH       MOCLDY    37  27  65 NW12G20   30.10R WCI  30
MONTGOMERY     FAIR      35  26  69 W8        30.11R WCI  29
WHITE PLAINS   MOCLDY    39  27  62 NW16G23   30.08R WCI  30
ISLIP          CLOUDY    42  33  70 NW10      30.09R
NEW YORK CITY  CLOUDY    42  27  55 NW18      30.12R
CENTRAL PARK   CLOUDY    43  28  55 VRB7      30.14R
$$

NYZ005>009-017-018-044>046-055-056-191200-
CENTRAL


CITY           SKY/WX    TMP DP  RH WIND       PRES   REMARKS
FULTON         CLOUDY    33  19  56 W17G29    30.16R WCI  22
SYRACUSE       MOCLDY    33  19  56 W18G25    30.17R WCI  22
ROME           CLOUDY    32  23  69 W13       30.14R WCI  22
ELMIRA         CLOUDY    30  22  72 SW5       30.16R WCI  25
BINGHAMTON     CLOUDY    29  20  69 NW7       30.11R WCI  22
MONTICELLO     FAIR      30  23  75 W15       30.10R WCI  19
$$

NYZ026>034-041>043-087-191200-
NORTH


CITY           SKY/WX    TMP DP  RH WIND       PRES   REMARKS
WATERTOWN      CLOUDY    30  16  56 W14G24    30.14R WCI  19
FORT DRUM      NOT AVBL
OGDENSBURG     CLOUDY    30  10  43 W18G35    30.06R WCI  18
MASSENA        FAIR      30  12  47 W16G32    30.06R WCI  19
SARANAC LAKE   CLOUDY    25  15  66 SW13G29   29.95R WCI  14
PLATTSBURGH    CLOUDY    34  18  52 W12G21    29.99R WCI  25
$$

NYZ001>004-010>016-019>021-085-191200-
WEST


CITY           SKY/WX    TMP DP  RH WIND       PRES   REMARKS
NIAGARA FALLS  CLOUDY    28  17  63 W14       30.23R WCI  17
BUFFALO        FAIR      30  16  56 W14       30.23R WCI  19
DUNKIRK        CLOUDY    32  20  61 W12G23    30.27R WCI  23
JAMESTOWN      MOCLDY    25  18  74 W20G25    30.21R WCI  11
WELLSVILLE     FAIR      26  18  71 W17G29    30.14R WCI  13
ROCHESTER      FLURRIES  31  18  58 W13       30.20R WCI  21
PENN YAN       CLOUDY    33  20  58 W9G18     30.17R WCI  25
$$

             KEY
       WCI = WIND CHILL INDEX
       VSB = VISIBILITY
       HX  = HEAT INDEX
$$



USA.gov is the U.S. government's official web portal to all federal, state and local government web resources and services.